Private Wetterstation Wechselburg
Wetterdaten: Dienstag, 25.04.2023
Datum Zeit Temp. +2m Bodentemp. Temp.+5cm Temp. Wind Windchill X Diff Temp. Feuchte +2m Feuchte +5cm Luftdruck Regen Wind Richtung Richtung Sonnenschein Taupunkt Windchill Windben
25.04.2023 00:02 9,2 C 13,9 C 8,6 C 9,1 C 8,9 C 0,0 C 73 % 58 % 1009,3 hPa 0,0 l/m 0,3 km/h (0 Bft) O-SO 112 0 min 4,6 C 8,9 C 0,0 km/h (0 Bft)
25.04.2023 00:03 9,2 C 13,9 C 8,6 C 9,1 C 8,9 C 0,0 C 73 % 58 % 1009,3 hPa 0,0 l/m 0,3 km/h (0 Bft) N 0 0 min 4,6 C 8,9 C 0,0 km/h (0 Bft)
25.04.2023 00:07 9,2 C 13,8 C 8,6 C 9,0 C 8,6 C 0,0 C 73 % 59 % 1009,3 hPa 0,0 l/m 0,5 km/h (0 Bft) N 0 0 min 4,6 C 8,6 C 0,0 km/h (0 Bft)
25.04.2023 00:10 9,2 C 13,8 C 8,6 C 9,0 C 8,6 C 0,0 C 73 % 59 % 1009,3 hPa 0,0 l/m 0,5 km/h (0 Bft) N 0 0 min 4,6 C 8,6 C 0,0 km/h (0 Bft)
25.04.2023 00:15 9,2 C 13,8 C 8,4 C 9,0 C 8,5 C 0,0 C 73 % 60 % 1009,3 hPa 0,0 l/m 0,3 km/h (0 Bft) S-SW 202 0 min 4,6 C 8,5 C 4,7 km/h (1 Bft)
25.04.2023 00:20 9,0 C 13,8 C 7,9 C 8,7 C 8,2 C 0,0 C 74 % 60 % 1009,3 hPa 0,0 l/m 0,5 km/h (0 Bft) SW 225 0 min 4,6 C 8,2 C 0,0 km/h (0 Bft)
25.04.2023 00:25 9,1 C 13,8 C 7,9 C 8,8 C 8,1 C 0,0 C 74 % 61 % 1009,3 hPa 0,0 l/m 0,3 km/h (0 Bft) SW 225 0 min 4,7 C 8,1 C 0,0 km/h (0 Bft)
25.04.2023 00:30 8,8 C 13,8 C 8,1 C 8,5 C 7,9 C 0,0 C 75 % 63 % 1009,3 hPa 0,0 l/m 0,0 km/h (0 Bft) S-SW 202 0 min 4,6 C 7,9 C 0,0 km/h (0 Bft)
25.04.2023 00:35 8,8 C 13,8 C 8,3 C 8,5 C 7,9 C 0,0 C 75 % 63 % 1009,3 hPa 0,0 l/m 0,0 km/h (0 Bft) S 180 0 min 4,6 C 7,9 C 2,3 km/h (1 Bft)
25.04.2023 00:40 8,8 C 13,8 C 8,3 C 8,6 C 8,2 C 0,0 C 76 % 63 % 1009,3 hPa 0,0 l/m 0,6 km/h (0 Bft) SW 225 0 min 4,8 C 8,2 C 2,3 km/h (1 Bft)
25.04.2023 00:45 8,7 C 13,8 C 8,2 C 8,5 C 8,2 C 0,0 C 76 % 62 % 1009,2 hPa 0,0 l/m 0,8 km/h (0 Bft) NW 315 0 min 4,7 C 8,2 C 0,0 km/h (0 Bft)
25.04.2023 00:50 8,7 C 13,8 C 8,1 C 8,5 C 8,2 C 0,0 C 76 % 61 % 1009,2 hPa 0,0 l/m 0,8 km/h (0 Bft) SW 225 0 min 4,7 C 8,2 C 0,0 km/h (0 Bft)
25.04.2023 00:55 8,7 C 13,8 C 8,1 C 8,5 C 8,2 C 0,0 C 76 % 61 % 1009,2 hPa 0,0 l/m 1,1 km/h (1 Bft) W-NW 292 0 min 4,7 C 8,2 C 0,0 km/h (0 Bft)
25.04.2023 01:00 8,5 C 13,7 C 7,9 C 8,3 C 8,0 C 0,0 C 76 % 61 % 1009,2 hPa 0,0 l/m 1,1 km/h (1 Bft) S-SW 202 0 min 4,5 C 8,0 C 1,8 km/h (1 Bft)
25.04.2023 01:05 8,4 C 13,7 C 7,9 C 8,2 C 7,9 C 0,0 C 76 % 61 % 1009,1 hPa 0,0 l/m 1,4 km/h (1 Bft) S-SW 202 0 min 4,4 C 7,9 C 4,3 km/h (1 Bft)
25.04.2023 01:11 8,4 C 13,7 C 7,7 C 8,2 C 7,9 C 0,0 C 76 % 62 % 1009,1 hPa 0,0 l/m 1,3 km/h (1 Bft) W-SW 247 0 min 4,4 C 7,9 C 10,0 km/h (2 Bft)
25.04.2023 01:15 8,4 C 13,7 C 7,7 C 8,2 C 7,9 C 0,0 C 76 % 62 % 1009,1 hPa 0,0 l/m 1,3 km/h (1 Bft) W-SW 247 0 min 4,4 C 7,9 C 0,0 km/h (0 Bft)
25.04.2023 01:22 8,3 C 13,7 C 7,4 C 8,1 C 7,6 C 0,0 C 77 % 61 % 1009,3 hPa 0,0 l/m 2,3 km/h (1 Bft) SW 225 0 min 4,5 C 7,6 C 5,8 km/h (2 Bft)
25.04.2023 01:23 8,3 C 13,7 C 7,4 C 8,1 C 7,6 C 0,0 C 77 % 61 % 1009,3 hPa 0,0 l/m 2,3 km/h (1 Bft) SW 225 0 min 4,5 C 7,6 C 5,8 km/h (2 Bft)
25.04.2023 01:24 8,3 C 13,7 C 7,4 C 8,1 C 7,6 C 0,0 C 77 % 61 % 1009,3 hPa 0,0 l/m 2,3 km/h (1 Bft) SW 225 0 min 4,5 C 7,6 C 5,8 km/h (2 Bft)
25.04.2023 01:25 8,3 C 13,7 C 7,4 C 8,1 C 7,6 C 0,0 C 77 % 61 % 1009,3 hPa 0,0 l/m 2,3 km/h (1 Bft) SW 225 0 min 4,5 C 7,6 C 5,8 km/h (2 Bft)
25.04.2023 01:26 8,1 C 13,7 C 7,3 C 7,9 C 7,4 C 0,0 C 77 % 62 % 1009,3 hPa 0,0 l/m 1,9 km/h (1 Bft) SW 225 0 min 4,3 C 7,4 C 5,0 km/h (1 Bft)
25.04.2023 01:28 8,1 C 13,7 C 7,3 C 7,9 C 7,4 C 0,0 C 77 % 62 % 1009,3 hPa 0,0 l/m 1,9 km/h (1 Bft) SW 225 0 min 4,3 C 7,4 C 5,0 km/h (1 Bft)
25.04.2023 01:30 8,1 C 13,7 C 7,3 C 7,9 C 7,4 C 0,0 C 77 % 62 % 1009,3 hPa 0,0 l/m 1,9 km/h (1 Bft) SW 225 0 min 4,3 C 7,4 C 5,0 km/h (1 Bft)
25.04.2023 01:39 7,8 C 13,6 C 6,7 C 7,5 C 7,0 C 0,0 C 77 % 62 % 1009,3 hPa 0,0 l/m 1,4 km/h (1 Bft) W-SW 247 0 min 4,0 C 7,0 C 3,5 km/h (1 Bft)
25.04.2023 01:40 7,8 C 13,6 C 6,7 C 7,5 C 7,0 C 0,0 C 77 % 62 % 1009,3 hPa 0,0 l/m 1,4 km/h (1 Bft) W-SW 247 0 min 4,0 C 7,0 C 3,5 km/h (1 Bft)
25.04.2023 01:50 7,5 C 13,6 C 6,3 C 7,2 C 6,6 C 0,0 C 77 % 63 % 1009,4 hPa 0,0 l/m 1,3 km/h (1 Bft) S 180 0 min 3,7 C 6,6 C 3,1 km/h (1 Bft)
25.04.2023 01:51 7,5 C 13,6 C 6,3 C 7,2 C 6,6 C 0,0 C 77 % 63 % 1009,4 hPa 0,0 l/m 1,3 km/h (1 Bft) S 180 0 min 3,7 C 6,6 C 3,1 km/h (1 Bft)
25.04.2023 01:52 7,5 C 13,6 C 6,3 C 7,2 C 6,6 C 0,0 C 77 % 63 % 1009,4 hPa 0,0 l/m 1,3 km/h (1 Bft) S 180 0 min 3,7 C 6,6 C 3,1 km/h (1 Bft)
25.04.2023 01:53 7,5 C 13,6 C 6,3 C 7,2 C 6,6 C 0,0 C 77 % 63 % 1009,4 hPa 0,0 l/m 1,3 km/h (1 Bft) S 180 0 min 3,7 C 6,6 C 3,1 km/h (1 Bft)
25.04.2023 01:54 7,5 C 13,6 C 6,3 C 7,2 C 6,6 C 0,0 C 77 % 63 % 1009,4 hPa 0,0 l/m 1,3 km/h (1 Bft) S 180 0 min 3,7 C 6,6 C 3,1 km/h (1 Bft)
25.04.2023 01:56 7,4 C 13,6 C 6,3 C 7,0 C 6,3 C 0,0 C 78 % 63 % 1009,4 hPa 0,0 l/m 1,0 km/h (0 Bft) S-SW 202 0 min 3,8 C 6,3 C 0,0 km/h (0 Bft)
25.04.2023 02:00 7,4 C 13,6 C 6,3 C 7,0 C 6,3 C 0,0 C 78 % 63 % 1009,4 hPa 0,0 l/m 1,0 km/h (0 Bft) S-SW 202 0 min 3,8 C 6,3 C 0,0 km/h (0 Bft)
25.04.2023 02:05 7,2 C 13,6 C 6,0 C 6,9 C 6,3 C 0,0 C 78 % 63 % 1009,3 hPa 0,0 l/m 0,8 km/h (0 Bft) W-SW 247 0 min 3,6 C 6,3 C 3,2 km/h (1 Bft)
25.04.2023 02:10 7,1 C 13,6 C 5,8 C 6,8 C 6,1 C 0,0 C 78 % 64 % 1009,3 hPa 0,0 l/m 0,6 km/h (0 Bft) S 180 0 min 3,5 C 6,1 C 0,0 km/h (0 Bft)
25.04.2023 02:15 7,0 C 13,6 C 5,8 C 6,7 C 6,1 C 0,0 C 78 % 64 % 1009,3 hPa 0,0 l/m 1,1 km/h (1 Bft) NW 315 0 min 3,4 C 6,1 C 2,9 km/h (1 Bft)
25.04.2023 02:20 7,0 C 13,5 C 5,8 C 6,7 C 6,0 C 0,0 C 79 % 64 % 1009,3 hPa 0,0 l/m 1,1 km/h (1 Bft) S-SO 157 0 min 3,6 C 6,0 C 0,0 km/h (0 Bft)
25.04.2023 02:25 6,9 C 13,5 C 5,8 C 6,6 C 6,0 C 0,0 C 79 % 64 % 1009,4 hPa 0,0 l/m 1,3 km/h (1 Bft) SW 225 0 min 3,5 C 6,0 C 0,0 km/h (0 Bft)
25.04.2023 02:30 6,8 C 13,5 C 5,8 C 6,5 C 5,9 C 0,0 C 79 % 64 % 1009,4 hPa 0,0 l/m 1,1 km/h (1 Bft) S 180 0 min 3,4 C 5,9 C 2,9 km/h (1 Bft)
25.04.2023 02:35 6,8 C 13,5 C 5,8 C 6,5 C 5,8 C 0,0 C 79 % 64 % 1009,4 hPa 0,0 l/m 0,6 km/h (0 Bft) SW 225 0 min 3,4 C 5,8 C 0,0 km/h (0 Bft)
25.04.2023 02:40 6,7 C 13,5 C 5,6 C 6,4 C 5,7 C 0,0 C 79 % 64 % 1009,4 hPa 0,0 l/m 0,3 km/h (0 Bft) N 360 0 min 3,3 C 5,7 C 0,0 km/h (0 Bft)
25.04.2023 02:45 6,7 C 13,5 C 5,4 C 6,3 C 5,5 C 0,0 C 79 % 64 % 1009,4 hPa 0,0 l/m 0,0 km/h (0 Bft) O-NO 67 0 min 3,3 C 5,5 C 0,0 km/h (0 Bft)
25.04.2023 02:50 6,5 C 13,5 C 5,1 C 6,1 C 5,3 C 0,0 C 79 % 65 % 1009,4 hPa 0,0 l/m 0,0 km/h (0 Bft) S 180 0 min 3,1 C 5,3 C 0,0 km/h (0 Bft)
25.04.2023 02:55 6,4 C 13,5 C 5,0 C 6,0 C 5,1 C 0,0 C 79 % 66 % 1009,4 hPa 0,0 l/m 0,0 km/h (0 Bft) O-NO 67 0 min 3,0 C 5,1 C 0,0 km/h (0 Bft)
25.04.2023 03:00 6,3 C 13,6 C 4,7 C 5,8 C 4,8 C 0,0 C 79 % 67 % 1009,4 hPa 0,0 l/m 0,0 km/h (0 Bft) O-NO 67 0 min 2,9 C 4,8 C 0,0 km/h (0 Bft)
25.04.2023 03:05 6,1 C 13,6 C 4,5 C 5,6 C 4,7 C 0,0 C 79 % 66 % 1009,2 hPa 0,0 l/m 0,0 km/h (0 Bft) NO 45 0 min 2,7 C 4,7 C 0,0 km/h (0 Bft)
25.04.2023 03:10 6,0 C 13,6 C 4,2 C 5,5 C 4,4 C 0,0 C 79 % 66 % 1009,2 hPa 0,0 l/m 0,0 km/h (0 Bft) NO 45 0 min 2,6 C 4,4 C 0,0 km/h (0 Bft)
25.04.2023 03:15 5,9 C 13,6 C 4,2 C 5,4 C 4,3 C 0,0 C 79 % 66 % 1009,2 hPa 0,0 l/m 0,0 km/h (0 Bft) N-NO 22 0 min 2,5 C 4,3 C 0,0 km/h (0 Bft)
25.04.2023 03:20 5,7 C 13,6 C 4,0 C 5,1 C 4,0 C 0,0 C 80 % 66 % 1009,2 hPa 0,0 l/m 0,0 km/h (0 Bft) W-SW 247 0 min 2,5 C 4,0 C 0,0 km/h (0 Bft)
25.04.2023 03:25 5,6 C 13,6 C 3,9 C 5,0 C 3,8 C 0,0 C 80 % 66 % 1009,1 hPa 0,0 l/m 0,0 km/h (0 Bft) NO 45 0 min 2,4 C 3,8 C 0,0 km/h (0 Bft)
25.04.2023 03:30 5,5 C 13,6 C 3,9 C 4,9 C 3,7 C 0,0 C 80 % 67 % 1009,1 hPa 0,0 l/m 0,0 km/h (0 Bft) S 180 0 min 2,3 C 3,7 C 0,0 km/h (0 Bft)
25.04.2023 03:35 5,5 C 13,6 C 3,9 C 4,9 C 3,7 C 0,0 C 81 % 67 % 1009,1 hPa 0,0 l/m 0,0 km/h (0 Bft) S-SW 202 0 min 2,5 C 3,7 C 0,0 km/h (0 Bft)
25.04.2023 03:40 5,5 C 13,5 C 3,9 C 5,0 C 3,9 C 0,0 C 81 % 68 % 1009,1 hPa 0,0 l/m 0,0 km/h (0 Bft) O-SO 112 0 min 2,5 C 3,9 C 0,0 km/h (0 Bft)
25.04.2023 03:45 5,5 C 13,5 C 4,0 C 5,0 C 4,1 C 0,0 C 81 % 69 % 1009,2 hPa 0,0 l/m 0,0 km/h (0 Bft) W 270 0 min 2,5 C 4,1 C 0,0 km/h (0 Bft)
25.04.2023 03:50 5,5 C 13,5 C 4,1 C 5,1 C 4,2 C 0,0 C 81 % 69 % 1009,2 hPa 0,0 l/m 0,2 km/h (0 Bft) S-SW 202 0 min 2,5 C 4,2 C 0,0 km/h (0 Bft)
25.04.2023 03:55 5,5 C 13,5 C 4,2 C 5,1 C 4,3 C 0,0 C 82 % 70 % 1009,2 hPa 0,0 l/m 0,2 km/h (0 Bft) W-SW 247 0 min 2,7 C 4,3 C 1,6 km/h (1 Bft)
25.04.2023 04:00 5,5 C 13,5 C 4,2 C 5,2 C 4,5 C 0,0 C 82 % 69 % 1009,2 hPa 0,0 l/m 0,3 km/h (0 Bft) SW 225 0 min 2,7 C 4,5 C 0,0 km/h (0 Bft)
25.04.2023 04:05 5,6 C 13,5 C 4,1 C 5,3 C 4,6 C 0,0 C 82 % 70 % 1009,0 hPa 0,0 l/m 0,3 km/h (0 Bft) S-SW 202 0 min 2,8 C 4,6 C 0,0 km/h (0 Bft)
25.04.2023 04:10 5,6 C 13,4 C 4,0 C 5,2 C 4,5 C 0,0 C 82 % 69 % 1009,0 hPa 0,0 l/m 0,2 km/h (0 Bft) W-SW 247 0 min 2,8 C 4,5 C 0,0 km/h (0 Bft)
25.04.2023 04:15 5,6 C 13,5 C 3,9 C 5,2 C 4,4 C 0,0 C 82 % 69 % 1009,0 hPa 0,0 l/m 0,0 km/h (0 Bft) W-SW 247 0 min 2,8 C 4,4 C 0,0 km/h (0 Bft)
25.04.2023 04:20 5,5 C 13,4 C 3,9 C 5,1 C 4,2 C 0,0 C 83 % 70 % 1009,0 hPa 0,0 l/m 0,0 km/h (0 Bft) SW 225 0 min 2,8 C 4,2 C 0,0 km/h (0 Bft)
25.04.2023 04:25 5,5 C 13,4 C 3,9 C 5,1 C 4,2 C 0,0 C 83 % 70 % 1009,1 hPa 0,0 l/m 0,0 km/h (0 Bft) W-SW 247 0 min 2,8 C 4,2 C 0,0 km/h (0 Bft)
25.04.2023 04:30 5,5 C 13,4 C 4,2 C 5,1 C 4,4 C 0,0 C 83 % 70 % 1009,1 hPa 0,0 l/m 0,6 km/h (0 Bft) S 180 0 min 2,8 C 4,4 C 4,0 km/h (1 Bft)
25.04.2023 04:35 5,6 C 13,3 C 4,4 C 5,3 C 4,7 C 0,0 C 83 % 70 % 1009,1 hPa 0,0 l/m 1,3 km/h (1 Bft) SW 225 0 min 2,9 C 4,7 C 2,7 km/h (1 Bft)
25.04.2023 04:40 5,9 C 13,3 C 4,5 C 5,6 C 5,0 C 0,0 C 83 % 70 % 1009,1 hPa 0,0 l/m 2,3 km/h (1 Bft) SW 225 0 min 3,2 C 5,0 C 1,8 km/h (1 Bft)
25.04.2023 04:45 5,9 C 13,3 C 4,6 C 5,7 C 5,2 C 0,0 C 83 % 71 % 1009,1 hPa 0,0 l/m 2,3 km/h (1 Bft) SW 225 0 min 3,2 C 5,2 C 3,2 km/h (1 Bft)
25.04.2023 04:50 5,9 C 13,3 C 4,6 C 5,7 C 5,2 C 0,0 C 83 % 70 % 1009,1 hPa 0,0 l/m 1,4 km/h (1 Bft) S 180 0 min 3,2 C 5,2 C 3,2 km/h (1 Bft)
25.04.2023 04:55 5,9 C 13,3 C 4,7 C 5,7 C 5,2 C 0,0 C 83 % 70 % 1009,1 hPa 0,0 l/m 1,1 km/h (1 Bft) S 180 0 min 3,2 C 5,2 C 2,3 km/h (1 Bft)
25.04.2023 05:00 5,9 C 13,3 C 4,5 C 5,7 C 5,2 C 0,0 C 82 % 69 % 1009,1 hPa 0,0 l/m 0,8 km/h (0 Bft) SW 225 0 min 3,1 C 5,2 C 1,6 km/h (1 Bft)
25.04.2023 05:05 5,9 C 13,3 C 4,4 C 5,6 C 5,1 C 0,0 C 82 % 69 % 1008,9 hPa 0,0 l/m 0,6 km/h (0 Bft) S 180 0 min 3,1 C 5,1 C 0,0 km/h (0 Bft)
25.04.2023 05:10 5,9 C 13,2 C 4,5 C 5,6 C 5,0 C 0,0 C 82 % 69 % 1008,9 hPa 0,0 l/m 0,3 km/h (0 Bft) SW 225 0 min 3,1 C 5,0 C 0,0 km/h (0 Bft)
25.04.2023 05:15 5,9 C 13,2 C 4,5 C 5,6 C 5,0 C 0,0 C 82 % 69 % 1008,9 hPa 0,0 l/m 0,2 km/h (0 Bft) O-SO 112 0 min 3,1 C 5,0 C 0,0 km/h (0 Bft)
25.04.2023 05:20 5,9 C 13,2 C 4,5 C 5,6 C 5,0 C 0,0 C 82 % 69 % 1008,9 hPa 0,0 l/m 0,3 km/h (0 Bft) SW 225 0 min 3,1 C 5,0 C 0,0 km/h (0 Bft)
25.04.2023 05:25 5,9 C 13,2 C 4,5 C 5,6 C 5,1 C 0,0 C 82 % 69 % 1008,9 hPa 0,0 l/m 0,5 km/h (0 Bft) W-SW 247 0 min 3,1 C 5,1 C 1,8 km/h (1 Bft)
25.04.2023 05:30 5,9 C 13,2 C 4,4 C 5,6 C 5,1 C 0,0 C 81 % 68 % 1008,9 hPa 0,0 l/m 0,5 km/h (0 Bft) SW 225 0 min 2,9 C 5,1 C 1,8 km/h (1 Bft)
25.04.2023 05:35 5,9 C 13,1 C 4,5 C 5,7 C 5,2 C 0,0 C 81 % 68 % 1008,9 hPa 0,0 l/m 0,5 km/h (0 Bft) SW 225 0 min 2,9 C 5,2 C 0,0 km/h (0 Bft)
25.04.2023 05:40 5,9 C 13,1 C 4,4 C 5,6 C 5,1 C 0,0 C 81 % 67 % 1008,9 hPa 0,0 l/m 0,3 km/h (0 Bft) SW 225 0 min 2,9 C 5,1 C 0,0 km/h (0 Bft)
25.04.2023 05:45 5,7 C 13,1 C 4,2 C 5,5 C 5,0 C 0,0 C 81 % 67 % 1009,1 hPa 0,0 l/m 0,2 km/h (0 Bft) SW 225 0 min 2,7 C 5,0 C 1,8 km/h (1 Bft)
25.04.2023 05:50 5,7 C 13,1 C 4,1 C 5,4 C 4,8 C 0,0 C 81 % 67 % 1009,1 hPa 0,0 l/m 0,0 km/h (0 Bft) SW 225 0 min 2,7 C 4,8 C 0,0 km/h (0 Bft)
25.04.2023 05:55 5,6 C 13,1 C 4,2 C 5,3 C 4,8 C 0,0 C 81 % 68 % 1009,1 hPa 0,0 l/m 0,2 km/h (0 Bft) W-SW 247 0 min 2,6 C 4,8 C 1,8 km/h (1 Bft)
25.04.2023 06:00 5,6 C 13,1 C 4,3 C 5,3 C 4,8 C 0,0 C 81 % 68 % 1009,1 hPa 0,0 l/m 0,2 km/h (0 Bft) W-SW 247 0 min 2,6 C 4,8 C 0,0 km/h (0 Bft)
25.04.2023 06:05 5,6 C 13,1 C 4,2 C 5,3 C 4,8 C 0,0 C 81 % 68 % 1009,0 hPa 0,0 l/m 0,2 km/h (0 Bft) SW 225 0 min 2,6 C 4,8 C 0,0 km/h (0 Bft)
25.04.2023 06:10 5,5 C 13,1 C 4,0 C 5,2 C 4,7 C 0,0 C 81 % 68 % 1009,0 hPa 0,0 l/m 0,0 km/h (0 Bft) W-SW 247 0 min 2,5 C 4,7 C 0,0 km/h (0 Bft)
25.04.2023 06:15 5,4 C 13,1 C 3,9 C 5,1 C 4,5 C 0,0 C 81 % 67 % 1009,0 hPa 0,0 l/m 0,0 km/h (0 Bft) W 270 0 min 2,4 C 4,5 C 0,0 km/h (0 Bft)
25.04.2023 06:20 5,2 C 13,1 C 3,8 C 4,9 C 4,2 C 0,0 C 81 % 67 % 1009,0 hPa 0,0 l/m 0,0 km/h (0 Bft) N-NO 22 0 min 2,2 C 4,2 C 0,0 km/h (0 Bft)
25.04.2023 06:25 5,3 C 13,1 C 3,9 C 4,9 C 4,2 C 0,0 C 81 % 68 % 1008,9 hPa 0,0 l/m 0,0 km/h (0 Bft) O-NO 67 0 min 2,3 C 4,2 C 0,0 km/h (0 Bft)
25.04.2023 06:30 5,1 C 13,2 C 3,9 C 4,8 C 4,3 C 0,0 C 81 % 68 % 1008,9 hPa 0,0 l/m 0,0 km/h (0 Bft) NO 45 0 min 2,1 C 4,3 C 0,0 km/h (0 Bft)
25.04.2023 06:35 5,1 C 13,1 C 4,2 C 4,9 C 4,4 C 0,0 C 82 % 68 % 1008,9 hPa 0,0 l/m 0,0 km/h (0 Bft) NO 45 0 min 2,3 C 4,4 C 0,0 km/h (0 Bft)
25.04.2023 06:40 5,1 C 13,1 C 4,0 C 4,9 C 4,5 C 0,0 C 82 % 69 % 1008,9 hPa 0,0 l/m 0,0 km/h (0 Bft) N-NO 22 0 min 2,3 C 4,5 C 0,0 km/h (0 Bft)
25.04.2023 06:45 5,1 C 13,1 C 3,9 C 4,9 C 4,6 C 0,0 C 82 % 69 % 1009,1 hPa 0,0 l/m 0,0 km/h (0 Bft) O-NO 67 0 min 2,3 C 4,6 C 0,0 km/h (0 Bft)
25.04.2023 06:50 5,1 C 13,1 C 4,6 C 5,1 C 5,0 C 0,0 C 82 % 69 % 1009,1 hPa 0,0 l/m 0,0 km/h (0 Bft) O-NO 67 0 min 2,3 C 5,0 C 0,0 km/h (0 Bft)
25.04.2023 06:55 5,1 C 13,1 C 4,7 C 5,3 C 5,3 C 0,2 C 82 % 69 % 1009,1 hPa 0,0 l/m 0,0 km/h (0 Bft) O-NO 67 0 min 2,3 C 5,3 C 0,0 km/h (0 Bft)
25.04.2023 07:00 5,1 C 13,0 C 5,5 C 5,6 C 5,6 C 0,5 C 83 % 72 % 1009,1 hPa 0,0 l/m 0,0 km/h (0 Bft) S-SO 157 0 min 2,5 C 5,6 C 0,0 km/h (0 Bft)
25.04.2023 07:05 5,2 C 13,0 C 6,0 C 7,1 C 7,1 C 1,9 C 83 % 72 % 1009,3 hPa 0,0 l/m 0,0 km/h (0 Bft) S-SO 157 5 min 2,6 C 7,1 C 0,0 km/h (0 Bft)
25.04.2023 07:10 5,5 C 13,0 C 6,4 C 9,7 C 9,7 C 4,2 C 84 % 70 % 1009,3 hPa 0,0 l/m 0,0 km/h (0 Bft) NW 315 5 min 3,0 C 9,7 C 0,0 km/h (0 Bft)
25.04.2023 07:15 5,5 C 12,9 C 6,5 C 11,5 C 11,5 C 6,0 C 84 % 68 % 1009,3 hPa 0,0 l/m 0,0 km/h (0 Bft) W 270 5 min 3,0 C 11,5 C 0,0 km/h (0 Bft)
25.04.2023 07:20 5,9 C 12,9 C 7,0 C 13,3 C 13,3 C 7,4 C 84 % 67 % 1009,3 hPa 0,0 l/m 0,0 km/h (0 Bft) NW 315 5 min 3,4 C 13,3 C 0,0 km/h (0 Bft)
25.04.2023 07:25 6,2 C 12,9 C 7,6 C 14,1 C 14,1 C 7,9 C 85 % 66 % 1009,4 hPa 0,0 l/m 0,0 km/h (0 Bft) N-NW 337 5 min 3,9 C 14,1 C 0,0 km/h (0 Bft)
25.04.2023 07:30 6,7 C 12,8 C 8,1 C 15,5 C 15,5 C 8,8 C 85 % 65 % 1009,4 hPa 0,0 l/m 0,0 km/h (0 Bft) S 180 5 min 4,4 C 15,5 C 0,0 km/h (0 Bft)
25.04.2023 07:35 6,7 C 12,8 C 7,7 C 15,1 C 15,1 C 8,4 C 84 % 64 % 1009,4 hPa 0,0 l/m 0,0 km/h (0 Bft) SW 225 5 min 4,2 C 15,1 C 0,0 km/h (0 Bft)
25.04.2023 07:40 6,7 C 12,8 C 7,3 C 11,5 C 11,5 C 4,8 C 83 % 64 % 1009,4 hPa 0,0 l/m 0,2 km/h (0 Bft) W-SW 247 5 min 4,0 C 11,5 C 2,7 km/h (1 Bft)
25.04.2023 07:45 6,7 C 12,8 C 7,1 C 11,4 C 11,4 C 4,7 C 82 % 63 % 1009,8 hPa 0,0 l/m 0,2 km/h (0 Bft) S 180 5 min 3,8 C 11,4 C 0,0 km/h (0 Bft)
25.04.2023 07:50 6,7 C 12,8 C 7,1 C 11,4 C 11,4 C 4,7 C 82 % 63 % 1009,8 hPa 0,0 l/m 0,2 km/h (0 Bft) S 180 5 min 3,8 C 11,4 C 0,0 km/h (0 Bft)
25.04.2023 07:55 6,8 C 12,8 C 7,5 C 10,2 C 10,2 C 3,4 C 81 % 62 % 1009,8 hPa 0,0 l/m 0,3 km/h (0 Bft) SW 225 5 min 3,8 C 10,2 C 0,0 km/h (0 Bft)
25.04.2023 08:00 7,1 C 12,8 C 8,3 C 10,2 C 10,2 C 3,1 C 81 % 62 % 1009,8 hPa 0,0 l/m 0,3 km/h (0 Bft) SW 225 0 min 4,1 C 10,2 C 0,0 km/h (0 Bft)
25.04.2023 08:05 7,3 C 12,8 C 8,6 C 10,2 C 10,2 C 2,9 C 80 % 61 % 1009,7 hPa 0,0 l/m 0,3 km/h (0 Bft) SW 225 0 min 4,1 C 10,2 C 0,0 km/h (0 Bft)
25.04.2023 08:10 7,5 C 12,8 C 9,1 C 10,2 C 10,2 C 2,7 C 80 % 60 % 1009,7 hPa 0,0 l/m 0,0 km/h (0 Bft) SW 225 0 min 4,3 C 10,2 C 0,0 km/h (0 Bft)
25.04.2023 08:15 7,7 C 12,8 C 9,1 C 10,2 C 10,2 C 2,5 C 79 % 59 % 1009,7 hPa 0,0 l/m 0,0 km/h (0 Bft) SW 225 0 min 4,3 C 10,2 C 0,0 km/h (0 Bft)
25.04.2023 08:20 7,7 C 12,8 C 9,1 C 10,2 C 10,2 C 2,5 C 78 % 58 % 1009,7 hPa 0,0 l/m 0,0 km/h (0 Bft) SW 225 0 min 4,1 C 10,2 C 0,0 km/h (0 Bft)
25.04.2023 08:25 7,9 C 12,8 C 9,3 C 10,2 C 10,2 C 2,3 C 77 % 58 % 1009,8 hPa 0,0 l/m 0,0 km/h (0 Bft) SW 225 0 min 4,1 C 10,2 C 0,0 km/h (0 Bft)
25.04.2023 08:30 8,1 C 12,7 C 9,1 C 10,2 C 10,2 C 2,1 C 77 % 56 % 1009,8 hPa 0,0 l/m 0,0 km/h (0 Bft) SW 225 0 min 4,3 C 10,2 C 0,0 km/h (0 Bft)
25.04.2023 08:35 8,0 C 12,7 C 8,9 C 10,2 C 10,2 C 2,2 C 76 % 56 % 1009,8 hPa 0,0 l/m 0,0 km/h (0 Bft) SW 225 0 min 4,0 C 10,2 C 0,0 km/h (0 Bft)
25.04.2023 08:40 8,2 C 12,7 C 8,8 C 10,2 C 10,2 C 2,0 C 75 % 55 % 1009,8 hPa 0,0 l/m 0,0 km/h (0 Bft) SW 225 0 min 4,0 C 10,2 C 0,0 km/h (0 Bft)
25.04.2023 08:45 8,3 C 12,7 C 8,6 C 10,2 C 10,2 C 1,9 C 75 % 55 % 1009,8 hPa 0,0 l/m 0,0 km/h (0 Bft) SW 225 0 min 4,1 C 10,2 C 0,0 km/h (0 Bft)
25.04.2023 08:50 8,4 C 12,7 C 9,2 C 10,2 C 10,2 C 1,8 C 74 % 55 % 1009,8 hPa 0,0 l/m 0,0 km/h (0 Bft) SW 225 0 min 4,0 C 10,2 C 0,0 km/h (0 Bft)
25.04.2023 08:55 8,7 C 12,7 C 9,5 C 10,2 C 10,2 C 1,5 C 74 % 55 % 1009,8 hPa 0,0 l/m 0,0 km/h (0 Bft) SW 225 0 min 4,3 C 10,2 C 0,0 km/h (0 Bft)
25.04.2023 09:00 8,7 C 12,7 C 8,6 C 10,2 C 10,2 C 1,5 C 72 % 53 % 1009,8 hPa 0,0 l/m 0,0 km/h (0 Bft) SW 225 0 min 3,9 C 10,2 C 0,0 km/h (0 Bft)
25.04.2023 09:05 8,2 C 12,7 C 8,3 C 10,2 C 10,2 C 2,0 C 71 % 53 % 1009,8 hPa 0,0 l/m 0,0 km/h (0 Bft) SW 225 0 min 3,3 C 10,2 C 0,0 km/h (0 Bft)
25.04.2023 09:10 8,1 C 12,7 C 8,2 C 10,2 C 10,2 C 2,1 C 71 % 53 % 1009,8 hPa 0,0 l/m 0,0 km/h (0 Bft) SW 225 0 min 3,2 C 10,2 C 0,0 km/h (0 Bft)
25.04.2023 09:15 8,1 C 12,7 C 8,2 C 10,2 C 10,2 C 2,1 C 72 % 54 % 1009,8 hPa 0,0 l/m 0,0 km/h (0 Bft) SW 225 0 min 3,4 C 10,2 C 0,0 km/h (0 Bft)
25.04.2023 09:20 8,1 C 12,7 C 8,3 C 11,0 C 11,0 C 2,9 C 72 % 54 % 1009,8 hPa 0,0 l/m 3,1 km/h (1 Bft) W-SW 247 0 min 3,4 C 11,0 C 5,1 km/h (1 Bft)
25.04.2023 09:25 8,1 C 12,7 C 8,5 C 10,9 C 10,9 C 2,8 C 72 % 54 % 1009,9 hPa 0,0 l/m 2,9 km/h (1 Bft) SO 135 0 min 3,4 C 10,9 C 4,7 km/h (1 Bft)
25.04.2023 09:30 8,3 C 12,7 C 8,9 C 11,7 C 11,7 C 3,4 C 71 % 52 % 1009,9 hPa 0,0 l/m 4,3 km/h (1 Bft) S-SO 157 5 min 3,4 C 11,7 C 13,0 km/h (3 Bft)
25.04.2023 09:35 8,4 C 12,7 C 9,3 C 11,5 C 11,5 C 3,1 C 71 % 53 % 1009,9 hPa 0,0 l/m 4,0 km/h (1 Bft) W-SW 247 0 min 3,5 C 11,5 C 1,8 km/h (1 Bft)
25.04.2023 09:40 8,5 C 12,7 C 9,2 C 11,7 C 11,7 C 3,2 C 71 % 51 % 1009,9 hPa 0,0 l/m 1,8 km/h (1 Bft) W-SW 247 0 min 3,5 C 11,7 C 6,4 km/h (2 Bft)
25.04.2023 09:45 8,4 C 12,7 C 9,1 C 11,4 C 11,4 C 3,0 C 70 % 51 % 1010,1 hPa 0,0 l/m 1,6 km/h (1 Bft) SW 225 0 min 3,3 C 11,4 C 5,0 km/h (1 Bft)
25.04.2023 09:50 8,4 C 12,7 C 9,5 C 11,1 C 11,1 C 2,7 C 71 % 51 % 1010,1 hPa 0,0 l/m 1,6 km/h (1 Bft) S 180 0 min 3,5 C 11,1 C 2,9 km/h (1 Bft)
25.04.2023 09:55 8,5 C 12,6 C 9,8 C 11,3 C 11,3 C 2,8 C 71 % 52 % 1010,1 hPa 0,0 l/m 1,8 km/h (1 Bft) W-SW 247 0 min 3,5 C 11,3 C 3,1 km/h (1 Bft)
25.04.2023 10:00 8,5 C 12,6 C 9,5 C 11,0 C 11,0 C 2,5 C 71 % 51 % 1010,1 hPa 0,0 l/m 1,3 km/h (1 Bft) S-SW 202 0 min 3,5 C 11,0 C 4,3 km/h (1 Bft)
25.04.2023 10:06 8,3 C 12,6 C 9,1 C 10,2 C 10,2 C 1,9 C 71 % 50 % 1010,1 hPa 0,0 l/m 2,7 km/h (1 Bft) SW 225 0 min 3,4 C 10,2 C 2,9 km/h (1 Bft)
25.04.2023 10:10 8,3 C 12,6 C 9,1 C 10,2 C 10,2 C 1,9 C 71 % 50 % 1010,1 hPa 0,0 l/m 2,7 km/h (1 Bft) SW 225 0 min 3,4 C 10,2 C 2,9 km/h (1 Bft)
25.04.2023 10:17 8,1 C 12,6 C 9,1 C 10,1 C 10,1 C 2,0 C 71 % 51 % 1010,1 hPa 0,0 l/m 1,9 km/h (1 Bft) SW 225 0 min 3,2 C 10,1 C 3,5 km/h (1 Bft)
25.04.2023 10:18 8,1 C 12,6 C 9,1 C 10,1 C 10,1 C 2,0 C 71 % 51 % 1010,1 hPa 0,0 l/m 1,9 km/h (1 Bft) SW 225 0 min 3,2 C 10,1 C 3,5 km/h (1 Bft)
25.04.2023 10:19 8,1 C 12,6 C 9,1 C 10,1 C 10,1 C 2,0 C 71 % 51 % 1010,1 hPa 0,0 l/m 1,9 km/h (1 Bft) SW 225 0 min 3,2 C 10,1 C 3,5 km/h (1 Bft)
25.04.2023 10:20 8,1 C 12,6 C 9,1 C 10,1 C 10,1 C 2,0 C 71 % 51 % 1010,1 hPa 0,0 l/m 1,9 km/h (1 Bft) SW 225 0 min 3,2 C 10,1 C 3,5 km/h (1 Bft)
25.04.2023 10:21 8,1 C 12,6 C 9,4 C 10,1 C 10,1 C 2,0 C 72 % 52 % 1010,3 hPa 0,0 l/m 2,1 km/h (1 Bft) S-SW 202 0 min 3,4 C 10,1 C 9,7 km/h (2 Bft)
25.04.2023 10:23 8,1 C 12,6 C 9,4 C 10,1 C 10,1 C 2,0 C 72 % 52 % 1010,3 hPa 0,0 l/m 2,1 km/h (1 Bft) S-SW 202 0 min 3,4 C 10,1 C 9,7 km/h (2 Bft)
25.04.2023 10:25 8,1 C 12,6 C 9,4 C 10,1 C 10,1 C 2,0 C 72 % 52 % 1010,3 hPa 0,0 l/m 2,1 km/h (1 Bft) S-SW 202 0 min 3,4 C 10,1 C 9,7 km/h (2 Bft)
25.04.2023 10:30 8,3 C 12,6 C 9,8 C 10,1 C 10,1 C 1,8 C 72 % 51 % 1010,3 hPa 0,0 l/m 2,6 km/h (1 Bft) SW 225 0 min 3,6 C 10,1 C 6,3 km/h (2 Bft)
25.04.2023 10:35 8,3 C 12,6 C 9,7 C 10,1 C 10,1 C 1,8 C 72 % 51 % 1010,3 hPa 0,0 l/m 2,6 km/h (1 Bft) SW 225 0 min 3,6 C 10,1 C 6,3 km/h (2 Bft)
25.04.2023 10:40 8,4 C 12,6 C 9,7 C 10,9 C 10,9 C 2,5 C 72 % 51 % 1010,3 hPa 0,0 l/m 1,1 km/h (1 Bft) N-NW 337 0 min 3,7 C 10,9 C 0,0 km/h (0 Bft)
25.04.2023 10:45 8,3 C 12,6 C 9,5 C 10,9 C 10,9 C 2,6 C 72 % 51 % 1010,8 hPa 0,0 l/m 1,6 km/h (1 Bft) S-SW 202 0 min 3,6 C 10,9 C 4,3 km/h (1 Bft)
25.04.2023 10:50 8,3 C 12,6 C 9,2 C 10,9 C 10,9 C 2,6 C 72 % 51 % 1010,8 hPa 0,0 l/m 1,6 km/h (1 Bft) S-SW 202 0 min 3,6 C 10,9 C 4,3 km/h (1 Bft)
25.04.2023 10:55 8,1 C 12,6 C 9,1 C 10,3 C 10,3 C 2,2 C 72 % 51 % 1010,8 hPa 0,0 l/m 1,6 km/h (1 Bft) SW 225 0 min 3,4 C 10,3 C 2,7 km/h (1 Bft)
25.04.2023 11:00 8,2 C 12,6 C 9,2 C 10,1 C 10,1 C 1,9 C 72 % 51 % 1010,8 hPa 0,0 l/m 1,8 km/h (1 Bft) SW 225 0 min 3,5 C 10,1 C 2,3 km/h (1 Bft)
25.04.2023 11:05 8,3 C 12,6 C 9,5 C 10,1 C 10,1 C 1,8 C 72 % 52 % 1010,6 hPa 0,0 l/m 1,8 km/h (1 Bft) SW 225 0 min 3,6 C 10,1 C 2,3 km/h (1 Bft)
25.04.2023 11:10 8,2 C 12,6 C 9,5 C 10,1 C 10,1 C 1,9 C 72 % 51 % 1010,6 hPa 0,0 l/m 1,8 km/h (1 Bft) SW 225 0 min 3,5 C 10,1 C 2,3 km/h (1 Bft)
25.04.2023 11:15 8,3 C 12,6 C 9,6 C 10,1 C 10,1 C 1,8 C 72 % 52 % 1010,6 hPa 0,0 l/m 0,0 km/h (0 Bft) SW 225 0 min 3,6 C 10,1 C 0,0 km/h (0 Bft)
25.04.2023 11:20 8,3 C 12,5 C 9,8 C 10,1 C 10,1 C 1,8 C 72 % 52 % 1010,6 hPa 0,0 l/m 0,0 km/h (0 Bft) SW 225 0 min 3,6 C 10,1 C 0,0 km/h (0 Bft)
25.04.2023 11:25 8,5 C 12,6 C 10,0 C 10,1 C 10,1 C 1,6 C 73 % 53 % 1010,8 hPa 0,0 l/m 0,0 km/h (0 Bft) SW 225 0 min 3,9 C 10,1 C 0,0 km/h (0 Bft)
25.04.2023 11:30 8,5 C 12,5 C 10,2 C 10,1 C 10,1 C 1,6 C 73 % 52 % 1010,8 hPa 0,0 l/m 0,0 km/h (0 Bft) SW 225 0 min 3,9 C 10,1 C 0,0 km/h (0 Bft)
25.04.2023 11:35 8,5 C 12,5 C 10,2 C 10,1 C 10,1 C 1,6 C 73 % 52 % 1010,8 hPa 0,0 l/m 0,0 km/h (0 Bft) SW 225 0 min 3,9 C 10,1 C 0,0 km/h (0 Bft)
25.04.2023 11:40 8,7 C 12,5 C 10,4 C 10,1 C 10,1 C 1,4 C 73 % 52 % 1010,8 hPa 0,0 l/m 0,0 km/h (0 Bft) SW 225 0 min 4,1 C 10,1 C 0,0 km/h (0 Bft)
25.04.2023 11:45 8,7 C 12,5 C 10,1 C 10,1 C 10,1 C 1,4 C 72 % 51 % 1010,9 hPa 0,0 l/m 0,0 km/h (0 Bft) SW 225 0 min 3,9 C 10,1 C 0,0 km/h (0 Bft)
25.04.2023 11:50 8,5 C 12,5 C 9,1 C 10,1 C 10,1 C 1,6 C 73 % 52 % 1010,9 hPa 0,0 l/m 0,0 km/h (0 Bft) SW 225 0 min 3,9 C 10,1 C 0,0 km/h (0 Bft)
25.04.2023 11:55 8,2 C 12,5 C 8,7 C 10,1 C 10,1 C 1,9 C 73 % 53 % 1010,9 hPa 0,0 l/m 0,0 km/h (0 Bft) SW 225 0 min 3,7 C 10,1 C 0,0 km/h (0 Bft)
25.04.2023 12:00 8,0 C 12,5 C 8,6 C 10,1 C 10,1 C 2,1 C 74 % 55 % 1010,9 hPa 0,0 l/m 0,0 km/h (0 Bft) SW 225 0 min 3,7 C 10,1 C 0,0 km/h (0 Bft)
25.04.2023 12:05 7,9 C 12,5 C 8,6 C 10,1 C 10,1 C 2,2 C 74 % 55 % 1011,2 hPa 0,0 l/m 0,0 km/h (0 Bft) SW 225 0 min 3,6 C 10,1 C 0,0 km/h (0 Bft)
25.04.2023 12:10 7,8 C 12,5 C 8,7 C 10,1 C 10,1 C 2,3 C 74 % 54 % 1011,2 hPa 0,0 l/m 0,0 km/h (0 Bft) SW 225 0 min 3,5 C 10,1 C 0,0 km/h (0 Bft)
25.04.2023 12:15 7,8 C 12,5 C 8,7 C 10,1 C 10,1 C 2,3 C 74 % 53 % 1011,2 hPa 0,0 l/m 0,0 km/h (0 Bft) SW 225 0 min 3,5 C 10,1 C 0,0 km/h (0 Bft)
25.04.2023 12:20 7,9 C 12,5 C 8,6 C 10,1 C 10,1 C 2,2 C 73 % 52 % 1011,2 hPa 0,0 l/m 0,0 km/h (0 Bft) SW 225 0 min 3,4 C 10,1 C 0,0 km/h (0 Bft)
25.04.2023 12:25 7,8 C 12,5 C 8,7 C 10,1 C 10,1 C 2,3 C 73 % 52 % 1011,4 hPa 0,0 l/m 0,0 km/h (0 Bft) SW 225 0 min 3,3 C 10,1 C 0,0 km/h (0 Bft)
25.04.2023 12:30 7,8 C 12,5 C 9,0 C 10,1 C 10,1 C 2,3 C 72 % 51 % 1011,4 hPa 0,0 l/m 0,0 km/h (0 Bft) SW 225 0 min 3,1 C 10,1 C 0,0 km/h (0 Bft)
25.04.2023 12:35 7,9 C 12,5 C 9,4 C 10,1 C 10,1 C 2,2 C 72 % 51 % 1011,4 hPa 0,0 l/m 0,0 km/h (0 Bft) SW 225 0 min 3,2 C 10,1 C 0,0 km/h (0 Bft)
25.04.2023 12:40 8,0 C 12,5 C 9,1 C 10,1 C 10,1 C 2,1 C 72 % 50 % 1011,4 hPa 0,0 l/m 0,0 km/h (0 Bft) SW 225 0 min 3,3 C 10,1 C 0,0 km/h (0 Bft)
25.04.2023 12:45 8,0 C 12,5 C 8,6 C 10,1 C 10,1 C 2,1 C 71 % 49 % 1011,6 hPa 0,0 l/m 0,0 km/h (0 Bft) SW 225 0 min 3,1 C 10,1 C 0,0 km/h (0 Bft)
25.04.2023 12:50 7,8 C 12,5 C 8,5 C 10,1 C 10,1 C 2,3 C 71 % 51 % 1011,6 hPa 0,0 l/m 0,0 km/h (0 Bft) SW 225 0 min 2,9 C 10,1 C 0,0 km/h (0 Bft)
25.04.2023 12:55 7,7 C 12,5 C 8,6 C 10,1 C 10,1 C 2,4 C 71 % 51 % 1011,6 hPa 0,0 l/m 0,0 km/h (0 Bft) SW 225 0 min 2,8 C 10,1 C 0,0 km/h (0 Bft)
25.04.2023 13:00 7,9 C 12,5 C 8,6 C 10,1 C 10,1 C 2,2 C 72 % 51 % 1011,6 hPa 0,0 l/m 0,0 km/h (0 Bft) SW 225 0 min 3,2 C 10,1 C 0,0 km/h (0 Bft)
25.04.2023 13:05 7,9 C 12,5 C 8,9 C 10,1 C 10,1 C 2,2 C 72 % 52 % 1011,6 hPa 0,0 l/m 0,0 km/h (0 Bft) SW 225 0 min 3,2 C 10,1 C 0,0 km/h (0 Bft)
25.04.2023 13:10 8,0 C 12,4 C 9,3 C 10,1 C 10,1 C 2,1 C 72 % 52 % 1011,6 hPa 0,0 l/m 0,0 km/h (0 Bft) SW 225 0 min 3,3 C 10,1 C 0,0 km/h (0 Bft)
25.04.2023 13:15 8,0 C 12,4 C 9,5 C 10,1 C 10,1 C 2,1 C 72 % 52 % 1011,6 hPa 0,0 l/m 0,0 km/h (0 Bft) SW 225 0 min 3,3 C 10,1 C 0,0 km/h (0 Bft)
25.04.2023 13:20 8,1 C 12,4 C 9,5 C 10,1 C 10,1 C 2,0 C 72 % 52 % 1011,6 hPa 0,0 l/m 0,0 km/h (0 Bft) SW 225 0 min 3,4 C 10,1 C 0,0 km/h (0 Bft)
25.04.2023 13:25 8,1 C 12,4 C 9,5 C 10,1 C 10,1 C 2,0 C 72 % 52 % 1011,7 hPa 0,0 l/m 0,0 km/h (0 Bft) SW 225 0 min 3,4 C 10,1 C 0,0 km/h (0 Bft)
25.04.2023 13:30 8,1 C 12,4 C 9,5 C 10,1 C 10,1 C 2,0 C 72 % 53 % 1011,7 hPa 0,0 l/m 0,0 km/h (0 Bft) SW 225 0 min 3,4 C 10,1 C 0,0 km/h (0 Bft)
25.04.2023 13:36 8,2 C 12,4 C 9,3 C 10,1 C 10,1 C 1,9 C 71 % 52 % 1011,7 hPa 0,0 l/m 0,0 km/h (0 Bft) SW 225 0 min 3,3 C 10,1 C 0,0 km/h (0 Bft)
25.04.2023 13:40 8,2 C 12,4 C 9,3 C 10,1 C 10,1 C 1,9 C 71 % 52 % 1011,7 hPa 0,0 l/m 0,0 km/h (0 Bft) SW 225 0 min 3,3 C 10,1 C 0,0 km/h (0 Bft)
25.04.2023 13:47 8,0 C 12,4 C 8,9 C 10,1 C 10,1 C 2,1 C 71 % 51 % 1011,9 hPa 0,0 l/m 0,0 km/h (0 Bft) SW 225 0 min 3,1 C 10,1 C 0,0 km/h (0 Bft)
25.04.2023 13:48 8,0 C 12,4 C 8,9 C 10,1 C 10,1 C 2,1 C 71 % 51 % 1011,9 hPa 0,0 l/m 0,0 km/h (0 Bft) SW 225 0 min 3,1 C 10,1 C 0,0 km/h (0 Bft)
25.04.2023 13:49 8,0 C 12,4 C 8,9 C 10,1 C 10,1 C 2,1 C 71 % 51 % 1011,9 hPa 0,0 l/m 0,0 km/h (0 Bft) SW 225 0 min 3,1 C 10,1 C 0,0 km/h (0 Bft)
25.04.2023 13:50 8,0 C 12,4 C 8,9 C 10,1 C 10,1 C 2,1 C 71 % 51 % 1011,9 hPa 0,0 l/m 0,0 km/h (0 Bft) SW 225 0 min 3,1 C 10,1 C 0,0 km/h (0 Bft)
25.04.2023 13:51 8,0 C 12,4 C 8,7 C 10,1 C 10,1 C 2,1 C 71 % 51 % 1011,9 hPa 0,0 l/m 0,0 km/h (0 Bft) SW 225 0 min 3,1 C 10,1 C 0,0 km/h (0 Bft)
25.04.2023 13:53 8,0 C 12,4 C 8,7 C 10,1 C 10,1 C 2,1 C 71 % 51 % 1011,9 hPa 0,0 l/m 0,0 km/h (0 Bft) SW 225 0 min 3,1 C 10,1 C 0,0 km/h (0 Bft)
25.04.2023 13:55 8,0 C 12,4 C 8,7 C 10,1 C 10,1 C 2,1 C 71 % 51 % 1011,9 hPa 0,0 l/m 0,0 km/h (0 Bft) SW 225 0 min 3,1 C 10,1 C 0,0 km/h (0 Bft)
25.04.2023 14:00 8,0 C 12,4 C 8,5 C 10,1 C 10,1 C 2,1 C 70 % 50 % 1011,9 hPa 0,0 l/m 0,0 km/h (0 Bft) SW 225 0 min 2,9 C 10,1 C 0,0 km/h (0 Bft)
25.04.2023 14:05 7,9 C 12,4 C 8,4 C 10,1 C 10,1 C 2,2 C 70 % 51 % 1012,1 hPa 0,0 l/m 0,0 km/h (0 Bft) SW 225 0 min 2,8 C 10,1 C 0,0 km/h (0 Bft)
25.04.2023 14:10 7,9 C 12,4 C 8,6 C 10,1 C 10,1 C 2,2 C 71 % 52 % 1012,1 hPa 0,0 l/m 0,0 km/h (0 Bft) SW 225 0 min 3,0 C 10,1 C 0,0 km/h (0 Bft)
25.04.2023 14:15 7,9 C 12,4 C 8,6 C 10,1 C 10,1 C 2,2 C 71 % 52 % 1012,1 hPa 0,0 l/m 0,0 km/h (0 Bft) SW 225 0 min 3,0 C 10,1 C 0,0 km/h (0 Bft)
25.04.2023 14:21 7,9 C 12,4 C 8,4 C 10,1 C 10,1 C 2,2 C 72 % 52 % 1012,1 hPa 0,0 l/m 0,0 km/h (0 Bft) SW 225 0 min 3,2 C 10,1 C 0,0 km/h (0 Bft)
25.04.2023 14:25 7,9 C 12,4 C 8,4 C 10,1 C 10,1 C 2,2 C 72 % 52 % 1012,1 hPa 0,0 l/m 0,0 km/h (0 Bft) SW 225 0 min 3,2 C 10,1 C 0,0 km/h (0 Bft)
25.04.2023 14:32 7,8 C 12,4 C 8,5 C 10,1 C 10,1 C 2,3 C 72 % 54 % 1012,1 hPa 0,0 l/m 0,0 km/h (0 Bft) SW 225 0 min 3,1 C 10,1 C 0,0 km/h (0 Bft)
25.04.2023 14:33 7,8 C 12,4 C 8,5 C 10,1 C 10,1 C 2,3 C 72 % 54 % 1012,1 hPa 0,0 l/m 0,0 km/h (0 Bft) SW 225 0 min 3,1 C 10,1 C 0,0 km/h (0 Bft)
25.04.2023 14:34 7,8 C 12,4 C 8,5 C 10,1 C 10,1 C 2,3 C 72 % 54 % 1012,1 hPa 0,0 l/m 0,0 km/h (0 Bft) SW 225 0 min 3,1 C 10,1 C 0,0 km/h (0 Bft)
25.04.2023 14:35 7,8 C 12,4 C 8,5 C 10,1 C 10,1 C 2,3 C 72 % 54 % 1012,1 hPa 0,0 l/m 0,0 km/h (0 Bft) SW 225 0 min 3,1 C 10,1 C 0,0 km/h (0 Bft)
25.04.2023 14:36 7,9 C 12,4 C 8,8 C 10,1 C 10,1 C 2,2 C 72 % 53 % 1012,1 hPa 0,0 l/m 0,0 km/h (0 Bft) SW 225 0 min 3,2 C 10,1 C 0,0 km/h (0 Bft)
25.04.2023 14:38 7,9 C 12,4 C 8,8 C 10,1 C 10,1 C 2,2 C 72 % 53 % 1012,1 hPa 0,0 l/m 0,0 km/h (0 Bft) SW 225 0 min 3,2 C 10,1 C 0,0 km/h (0 Bft)
25.04.2023 14:40 7,9 C 12,4 C 8,8 C 10,1 C 10,1 C 2,2 C 72 % 53 % 1012,1 hPa 0,0 l/m 0,0 km/h (0 Bft) SW 225 0 min 3,2 C 10,1 C 0,0 km/h (0 Bft)
25.04.2023 14:45 8,0 C 12,4 C 9,3 C 10,1 C 10,1 C 2,1 C 73 % 54 % 1012,0 hPa 0,0 l/m 0,0 km/h (0 Bft) SW 225 0 min 3,5 C 10,1 C 0,0 km/h (0 Bft)
25.04.2023 14:50 8,3 C 12,4 C 9,8 C 10,1 C 10,1 C 1,8 C 72 % 53 % 1012,0 hPa 0,0 l/m 0,0 km/h (0 Bft) SW 225 0 min 3,6 C 10,1 C 0,0 km/h (0 Bft)
25.04.2023 14:55 8,3 C 12,4 C 9,7 C 10,1 C 10,1 C 1,8 C 72 % 53 % 1012,0 hPa 0,0 l/m 0,0 km/h (0 Bft) SW 225 0 min 3,6 C 10,1 C 0,0 km/h (0 Bft)
25.04.2023 15:00 8,3 C 12,4 C 9,2 C 10,1 C 10,1 C 1,8 C 73 % 54 % 1012,0 hPa 0,0 l/m 0,0 km/h (0 Bft) SW 225 0 min 3,8 C 10,1 C 0,0 km/h (0 Bft)
25.04.2023 15:05 8,1 C 12,4 C 9,3 C 10,1 C 10,1 C 2,0 C 74 % 55 % 1012,1 hPa 0,0 l/m 0,0 km/h (0 Bft) SW 225 0 min 3,8 C 10,1 C 0,0 km/h (0 Bft)
25.04.2023 15:10 8,0 C 12,4 C 9,8 C 10,1 C 10,1 C 2,1 C 74 % 55 % 1012,1 hPa 0,0 l/m 0,0 km/h (0 Bft) SW 225 0 min 3,7 C 10,1 C 0,0 km/h (0 Bft)
25.04.2023 15:15 8,3 C 12,4 C 10,2 C 10,1 C 10,1 C 1,8 C 74 % 56 % 1012,1 hPa 0,0 l/m 0,0 km/h (0 Bft) SW 225 0 min 3,9 C 10,1 C 0,0 km/h (0 Bft)
25.04.2023 15:20 8,4 C 12,4 C 10,7 C 10,1 C 10,1 C 1,7 C 75 % 54 % 1012,1 hPa 0,0 l/m 0,0 km/h (0 Bft) SW 225 0 min 4,2 C 10,1 C 0,0 km/h (0 Bft)
25.04.2023 15:26 8,8 C 12,4 C 11,0 C 10,1 C 10,1 C 1,3 C 73 % 53 % 1012,4 hPa 0,0 l/m 0,0 km/h (0 Bft) SW 225 0 min 4,2 C 10,1 C 0,0 km/h (0 Bft)
25.04.2023 15:30 8,8 C 12,4 C 11,0 C 10,1 C 10,1 C 1,3 C 73 % 53 % 1012,4 hPa 0,0 l/m 0,0 km/h (0 Bft) SW 225 0 min 4,2 C 10,1 C 0,0 km/h (0 Bft)
25.04.2023 15:37 9,4 C 12,4 C 11,6 C 10,1 C 10,1 C 0,7 C 71 % 52 % 1012,4 hPa 0,0 l/m 0,0 km/h (0 Bft) SW 225 0 min 4,4 C 10,1 C 0,0 km/h (0 Bft)
25.04.2023 15:38 9,4 C 12,4 C 11,6 C 10,1 C 10,1 C 0,7 C 71 % 52 % 1012,4 hPa 0,0 l/m 0,0 km/h (0 Bft) SW 225 0 min 4,4 C 10,1 C 0,0 km/h (0 Bft)
25.04.2023 15:39 9,4 C 12,4 C 11,6 C 10,1 C 10,1 C 0,7 C 71 % 52 % 1012,4 hPa 0,0 l/m 0,0 km/h (0 Bft) SW 225 0 min 4,4 C 10,1 C 0,0 km/h (0 Bft)
25.04.2023 15:40 9,4 C 12,4 C 11,6 C 10,1 C 10,1 C 0,7 C 71 % 52 % 1012,4 hPa 0,0 l/m 0,0 km/h (0 Bft) SW 225 0 min 4,4 C 10,1 C 0,0 km/h (0 Bft)
25.04.2023 15:41 9,3 C 12,4 C 11,4 C 10,1 C 10,1 C 0,8 C 70 % 51 % 1012,2 hPa 0,0 l/m 0,0 km/h (0 Bft) SW 225 0 min 4,1 C 10,1 C 0,0 km/h (0 Bft)
25.04.2023 15:43 9,3 C 12,4 C 11,4 C 10,1 C 10,1 C 0,8 C 70 % 51 % 1012,2 hPa 0,0 l/m 0,0 km/h (0 Bft) SW 225 0 min 4,1 C 10,1 C 0,0 km/h (0 Bft)
25.04.2023 15:45 9,3 C 12,4 C 11,4 C 10,1 C 10,1 C 0,8 C 70 % 51 % 1012,2 hPa 0,0 l/m 0,0 km/h (0 Bft) SW 225 0 min 4,1 C 10,1 C 0,0 km/h (0 Bft)
25.04.2023 15:50 9,3 C 12,4 C 11,1 C 10,1 C 10,1 C 0,8 C 69 % 49 % 1012,2 hPa 0,0 l/m 0,0 km/h (0 Bft) SW 225 0 min 3,9 C 10,1 C 0,0 km/h (0 Bft)
25.04.2023 15:55 9,3 C 12,4 C 11,1 C 10,1 C 10,1 C 0,8 C 68 % 50 % 1012,2 hPa 0,0 l/m 0,0 km/h (0 Bft) SW 225 0 min 3,7 C 10,1 C 0,0 km/h (0 Bft)
25.04.2023 16:00 9,3 C 12,4 C 10,5 C 10,1 C 10,1 C 0,8 C 68 % 49 % 1012,2 hPa 0,0 l/m 0,0 km/h (0 Bft) SW 225 0 min 3,7 C 10,1 C 0,0 km/h (0 Bft)
25.04.2023 16:05 9,1 C 12,4 C 10,0 C 10,1 C 10,1 C 1,0 C 68 % 49 % 1012,2 hPa 0,0 l/m 0,0 km/h (0 Bft) SW 225 0 min 3,5 C 10,1 C 0,0 km/h (0 Bft)
25.04.2023 16:10 8,9 C 12,4 C 9,5 C 10,1 C 10,1 C 1,2 C 68 % 49 % 1012,2 hPa 0,0 l/m 0,0 km/h (0 Bft) SW 225 0 min 3,3 C 10,1 C 0,0 km/h (0 Bft)
25.04.2023 16:15 8,9 C 12,4 C 9,2 C 10,1 C 10,1 C 1,2 C 68 % 50 % 1012,2 hPa 0,0 l/m 0,0 km/h (0 Bft) SW 225 0 min 3,3 C 10,1 C 0,0 km/h (0 Bft)
25.04.2023 16:20 8,6 C 12,5 C 7,9 C 10,1 C 10,1 C 1,5 C 71 % 63 % 1012,2 hPa 0,0 l/m 0,0 km/h (0 Bft) SW 225 0 min 3,6 C 10,1 C 0,0 km/h (0 Bft)
25.04.2023 16:25 8,1 C 12,6 C 6,8 C 10,1 C 10,1 C 2,0 C 72 % 68 % 1012,9 hPa 0,0 l/m 0,0 km/h (0 Bft) SW 225 0 min 3,4 C 10,1 C 0,0 km/h (0 Bft)
25.04.2023 16:30 7,2 C 12,8 C 6,0 C 10,1 C 10,1 C 2,9 C 73 % 72 % 1012,9 hPa 1,4 l/m 0,0 km/h (0 Bft) SW 225 0 min 2,7 C 10,1 C 0,0 km/h (0 Bft)
25.04.2023 16:35 7,0 C 12,7 C 6,1 C 10,1 C 10,1 C 3,1 C 75 % 74 % 1012,9 hPa 0,0 l/m 0,0 km/h (0 Bft) SW 225 0 min 2,9 C 10,1 C 0,0 km/h (0 Bft)
25.04.2023 16:40 6,7 C 12,7 C 5,9 C 6,4 C 5,8 C 0,0 C 77 % 75 % 1012,9 hPa 0,0 l/m 1,6 km/h (1 Bft) SW 225 0 min 3,0 C 5,8 C 0,0 km/h (0 Bft)
25.04.2023 16:45 6,7 C 12,7 C 5,8 C 6,4 C 5,8 C 0,0 C 77 % 75 % 1012,9 hPa 0,0 l/m 1,3 km/h (1 Bft) NW 315 0 min 3,0 C 5,8 C 0,0 km/h (0 Bft)
25.04.2023 16:50 6,4 C 12,7 C 5,9 C 6,2 C 5,8 C 0,0 C 78 % 76 % 1012,9 hPa 0,0 l/m 0,5 km/h (0 Bft) W-NW 292 0 min 2,8 C 5,8 C 0,0 km/h (0 Bft)
25.04.2023 16:55 6,4 C 12,7 C 6,2 C 6,3 C 6,0 C 0,0 C 79 % 76 % 1012,9 hPa 0,0 l/m 0,5 km/h (0 Bft) NW 315 0 min 3,0 C 6,0 C 0,0 km/h (0 Bft)
25.04.2023 17:00 6,6 C 12,7 C 6,7 C 6,6 C 6,5 C 0,0 C 80 % 77 % 1012,9 hPa 0,0 l/m 0,0 km/h (0 Bft) O 90 0 min 3,4 C 6,5 C 0,0 km/h (0 Bft)
25.04.2023 17:06 7,0 C 12,7 C 7,2 C 7,3 C 7,3 C 0,3 C 81 % 77 % 1012,8 hPa 0,0 l/m 0,0 km/h (0 Bft) N-NO 22 0 min 4,0 C 7,3 C 0,0 km/h (0 Bft)
25.04.2023 17:10 7,0 C 12,7 C 7,2 C 7,3 C 7,3 C 0,3 C 81 % 77 % 1012,8 hPa 0,0 l/m 0,0 km/h (0 Bft) N-NO 22 0 min 4,0 C 7,3 C 0,0 km/h (0 Bft)
25.04.2023 17:17 7,5 C 12,5 C 8,2 C 8,7 C 8,7 C 1,2 C 81 % 78 % 1012,8 hPa 0,0 l/m 0,0 km/h (0 Bft) S-SO 157 0 min 4,5 C 8,7 C 0,0 km/h (0 Bft)
25.04.2023 17:18 7,5 C 12,5 C 8,2 C 8,7 C 8,7 C 1,2 C 81 % 78 % 1012,8 hPa 0,0 l/m 0,0 km/h (0 Bft) S-SO 157 0 min 4,5 C 8,7 C 0,0 km/h (0 Bft)
25.04.2023 17:19 7,5 C 12,5 C 8,2 C 8,7 C 8,7 C 1,2 C 81 % 78 % 1012,8 hPa 0,0 l/m 0,0 km/h (0 Bft) S-SO 157 0 min 4,5 C 8,7 C 0,0 km/h (0 Bft)
25.04.2023 17:20 7,5 C 12,5 C 8,2 C 8,7 C 8,7 C 1,2 C 81 % 78 % 1012,8 hPa 0,0 l/m 0,0 km/h (0 Bft) S-SO 157 0 min 4,5 C 8,7 C 0,0 km/h (0 Bft)
25.04.2023 17:21 7,7 C 12,5 C 8,3 C 9,5 C 9,5 C 1,8 C 81 % 79 % 1013,0 hPa 0,0 l/m 0,0 km/h (0 Bft) SW 225 0 min 4,7 C 9,5 C 0,0 km/h (0 Bft)
25.04.2023 17:23 7,7 C 12,5 C 8,3 C 9,5 C 9,5 C 1,8 C 81 % 79 % 1013,0 hPa 0,0 l/m 0,0 km/h (0 Bft) SW 225 0 min 4,7 C 9,5 C 0,0 km/h (0 Bft)
25.04.2023 17:25 7,7 C 12,5 C 8,3 C 9,5 C 9,5 C 1,8 C 81 % 79 % 1013,0 hPa 0,0 l/m 0,0 km/h (0 Bft) SW 225 0 min 4,7 C 9,5 C 0,0 km/h (0 Bft)
25.04.2023 17:30 7,9 C 12,4 C 7,7 C 10,1 C 10,1 C 2,2 C 79 % 77 % 1013,0 hPa 0,0 l/m 0,3 km/h (0 Bft) NO 45 0 min 4,5 C 10,1 C 0,0 km/h (0 Bft)
25.04.2023 17:35 7,9 C 12,4 C 7,5 C 10,0 C 10,0 C 2,1 C 78 % 77 % 1013,0 hPa 0,0 l/m 0,5 km/h (0 Bft) SW 225 0 min 4,3 C 10,0 C 2,3 km/h (1 Bft)
25.04.2023 17:40 7,9 C 12,4 C 7,2 C 9,4 C 9,4 C 1,5 C 76 % 77 % 1013,0 hPa 0,0 l/m 0,6 km/h (0 Bft) S 180 0 min 3,9 C 9,4 C 1,8 km/h (1 Bft)
25.04.2023 17:45 7,7 C 12,4 C 6,9 C 9,0 C 9,0 C 1,3 C 75 % 76 % 1013,2 hPa 0,0 l/m 0,8 km/h (0 Bft) N 360 0 min 3,6 C 9,0 C 3,2 km/h (1 Bft)
25.04.2023 17:50 7,6 C 12,4 C 6,5 C 8,4 C 8,4 C 0,8 C 74 % 74 % 1013,2 hPa 0,0 l/m 1,0 km/h (0 Bft) O-NO 67 0 min 3,3 C 8,4 C 0,0 km/h (0 Bft)
25.04.2023 17:55 7,6 C 12,4 C 6,5 C 8,3 C 8,3 C 0,7 C 73 % 74 % 1013,2 hPa 0,0 l/m 1,1 km/h (1 Bft) W 270 0 min 3,1 C 8,3 C 0,0 km/h (0 Bft)
25.04.2023 18:00 7,6 C 12,3 C 6,5 C 8,3 C 8,3 C 0,7 C 72 % 73 % 1013,2 hPa 0,0 l/m 0,6 km/h (0 Bft) SW 225 0 min 2,9 C 8,3 C 2,7 km/h (1 Bft)
25.04.2023 18:06 7,7 C 12,3 C 6,7 C 8,5 C 8,5 C 0,8 C 72 % 74 % 1013,2 hPa 0,0 l/m 0,0 km/h (0 Bft) SW 225 0 min 3,0 C 8,5 C 0,0 km/h (0 Bft)
25.04.2023 18:10 7,7 C 12,3 C 6,7 C 8,5 C 8,5 C 0,8 C 72 % 74 % 1013,2 hPa 0,0 l/m 0,0 km/h (0 Bft) SW 225 0 min 3,0 C 8,5 C 0,0 km/h (0 Bft)
25.04.2023 18:17 7,7 C 12,3 C 6,7 C 8,4 C 8,4 C 0,7 C 71 % 74 % 1013,2 hPa 0,0 l/m 0,0 km/h (0 Bft) W-SW 247 0 min 2,8 C 8,4 C 0,0 km/h (0 Bft)
25.04.2023 18:18 7,7 C 12,3 C 6,7 C 8,4 C 8,4 C 0,7 C 71 % 74 % 1013,2 hPa 0,0 l/m 0,0 km/h (0 Bft) W-SW 247 0 min 2,8 C 8,4 C 0,0 km/h (0 Bft)
25.04.2023 18:19 7,7 C 12,3 C 6,7 C 8,4 C 8,4 C 0,7 C 71 % 74 % 1013,2 hPa 0,0 l/m 0,0 km/h (0 Bft) W-SW 247 0 min 2,8 C 8,4 C 0,0 km/h (0 Bft)
25.04.2023 18:20 7,7 C 12,3 C 6,7 C 8,4 C 8,4 C 0,7 C 71 % 74 % 1013,2 hPa 0,0 l/m 0,0 km/h (0 Bft) W-SW 247 0 min 2,8 C 8,4 C 0,0 km/h (0 Bft)
25.04.2023 18:21 7,8 C 12,3 C 6,7 C 8,5 C 8,5 C 0,7 C 71 % 74 % 1013,1 hPa 0,0 l/m 0,0 km/h (0 Bft) W 270 0 min 2,9 C 8,5 C 0,0 km/h (0 Bft)
25.04.2023 18:23 7,8 C 12,3 C 6,7 C 8,5 C 8,5 C 0,7 C 71 % 74 % 1013,1 hPa 0,0 l/m 0,0 km/h (0 Bft) W 270 0 min 2,9 C 8,5 C 0,0 km/h (0 Bft)
25.04.2023 18:25 7,8 C 12,3 C 6,7 C 8,5 C 8,5 C 0,7 C 71 % 74 % 1013,1 hPa 0,0 l/m 0,0 km/h (0 Bft) W 270 0 min 2,9 C 8,5 C 0,0 km/h (0 Bft)
25.04.2023 18:30 7,9 C 12,3 C 6,8 C 8,7 C 8,7 C 0,8 C 71 % 73 % 1013,1 hPa 0,0 l/m 0,2 km/h (0 Bft) W-SW 247 0 min 3,0 C 8,7 C 2,1 km/h (1 Bft)
25.04.2023 18:35 7,9 C 12,3 C 6,8 C 8,7 C 8,7 C 0,8 C 71 % 73 % 1013,1 hPa 0,0 l/m 0,2 km/h (0 Bft) S-SW 202 0 min 3,0 C 8,7 C 0,0 km/h (0 Bft)
25.04.2023 18:40 7,9 C 12,3 C 6,8 C 8,7 C 8,7 C 0,8 C 70 % 72 % 1013,1 hPa 0,0 l/m 0,2 km/h (0 Bft) W-SW 247 0 min 2,8 C 8,7 C 0,0 km/h (0 Bft)
25.04.2023 18:45 8,0 C 12,3 C 6,8 C 8,7 C 8,7 C 0,7 C 70 % 72 % 1013,6 hPa 0,0 l/m 0,3 km/h (0 Bft) SW 225 0 min 2,9 C 8,7 C 3,4 km/h (1 Bft)
25.04.2023 18:50 8,0 C 12,3 C 6,8 C 8,9 C 8,9 C 0,9 C 69 % 71 % 1013,6 hPa 0,0 l/m 0,6 km/h (0 Bft) S-SW 202 0 min 2,7 C 8,9 C 0,0 km/h (0 Bft)
25.04.2023 18:55 8,0 C 12,3 C 6,8 C 8,9 C 8,9 C 0,9 C 69 % 71 % 1013,6 hPa 0,0 l/m 0,5 km/h (0 Bft) W-SW 247 0 min 2,7 C 8,9 C 0,0 km/h (0 Bft)
25.04.2023 19:00 8,1 C 12,3 C 6,7 C 8,9 C 8,9 C 0,8 C 69 % 70 % 1013,6 hPa 0,0 l/m 0,2 km/h (0 Bft) S 180 0 min 2,8 C 8,9 C 0,0 km/h (0 Bft)
25.04.2023 19:06 8,0 C 12,3 C 6,5 C 8,6 C 8,6 C 0,6 C 67 % 68 % 1013,5 hPa 0,0 l/m 0,2 km/h (0 Bft) SW 225 0 min 2,3 C 8,6 C 0,0 km/h (0 Bft)
25.04.2023 19:10 8,0 C 12,3 C 6,5 C 8,6 C 8,6 C 0,6 C 67 % 68 % 1013,5 hPa 0,0 l/m 0,2 km/h (0 Bft) SW 225 0 min 2,3 C 8,6 C 0,0 km/h (0 Bft)
25.04.2023 19:17 8,0 C 12,3 C 6,3 C 8,3 C 8,3 C 0,3 C 66 % 67 % 1013,5 hPa 0,0 l/m 0,3 km/h (0 Bft) S 180 0 min 2,0 C 8,3 C 2,7 km/h (1 Bft)
25.04.2023 19:18 8,0 C 12,3 C 6,3 C 8,3 C 8,3 C 0,3 C 66 % 67 % 1013,5 hPa 0,0 l/m 0,3 km/h (0 Bft) S 180 0 min 2,0 C 8,3 C 2,7 km/h (1 Bft)
25.04.2023 19:19 8,0 C 12,3 C 6,3 C 8,3 C 8,3 C 0,3 C 66 % 67 % 1013,5 hPa 0,0 l/m 0,3 km/h (0 Bft) S 180 0 min 2,0 C 8,3 C 2,7 km/h (1 Bft)
25.04.2023 19:20 8,0 C 12,3 C 6,3 C 8,3 C 8,3 C 0,3 C 66 % 67 % 1013,5 hPa 0,0 l/m 0,3 km/h (0 Bft) S 180 0 min 2,0 C 8,3 C 2,7 km/h (1 Bft)
25.04.2023 19:21 7,9 C 12,3 C 6,3 C 8,3 C 8,3 C 0,4 C 66 % 66 % 1013,7 hPa 0,0 l/m 0,2 km/h (0 Bft) SW 225 0 min 1,9 C 8,3 C 0,0 km/h (0 Bft)
25.04.2023 19:23 7,9 C 12,3 C 6,3 C 8,3 C 8,3 C 0,4 C 66 % 66 % 1013,7 hPa 0,0 l/m 0,2 km/h (0 Bft) SW 225 0 min 1,9 C 8,3 C 0,0 km/h (0 Bft)
25.04.2023 19:25 7,9 C 12,3 C 6,3 C 8,3 C 8,3 C 0,4 C 66 % 66 % 1013,7 hPa 0,0 l/m 0,2 km/h (0 Bft) SW 225 0 min 1,9 C 8,3 C 0,0 km/h (0 Bft)
25.04.2023 19:30 7,9 C 12,3 C 6,3 C 8,2 C 8,2 C 0,3 C 66 % 66 % 1013,7 hPa 0,0 l/m 0,2 km/h (0 Bft) SW 225 0 min 1,9 C 8,2 C 0,0 km/h (0 Bft)
25.04.2023 19:35 7,9 C 12,3 C 6,3 C 8,2 C 8,2 C 0,3 C 66 % 66 % 1013,7 hPa 0,0 l/m 0,2 km/h (0 Bft) W 270 0 min 1,9 C 8,2 C 0,0 km/h (0 Bft)
25.04.2023 19:40 7,8 C 12,2 C 6,1 C 7,9 C 7,9 C 0,1 C 66 % 64 % 1013,7 hPa 0,0 l/m 0,2 km/h (0 Bft) N-NW 337 0 min 1,9 C 7,9 C 0,0 km/h (0 Bft)
25.04.2023 19:45 7,9 C 12,2 C 6,0 C 7,9 C 7,8 C 0,0 C 66 % 64 % 1013,8 hPa 0,0 l/m 0,0 km/h (0 Bft) NW 315 0 min 1,9 C 7,8 C 0,0 km/h (0 Bft)
25.04.2023 19:50 7,7 C 12,2 C 5,9 C 7,7 C 7,6 C 0,0 C 66 % 64 % 1013,8 hPa 0,0 l/m 0,0 km/h (0 Bft) S-SO 157 0 min 1,8 C 7,6 C 0,0 km/h (0 Bft)
25.04.2023 19:55 7,6 C 12,2 C 5,9 C 7,6 C 7,5 C 0,0 C 66 % 64 % 1013,8 hPa 0,0 l/m 0,0 km/h (0 Bft) SW 225 0 min 1,7 C 7,5 C 0,0 km/h (0 Bft)
25.04.2023 20:00 7,7 C 12,2 C 5,9 C 7,6 C 7,4 C 0,0 C 67 % 65 % 1013,8 hPa 0,0 l/m 0,0 km/h (0 Bft) SW 225 0 min 2,0 C 7,4 C 0,0 km/h (0 Bft)
25.04.2023 20:05 7,6 C 12,2 C 5,8 C 7,5 C 7,3 C 0,0 C 66 % 64 % 1013,9 hPa 0,0 l/m 0,0 km/h (0 Bft) W 270 0 min 1,7 C 7,3 C 0,0 km/h (0 Bft)
25.04.2023 20:10 7,5 C 12,2 C 5,8 C 7,4 C 7,2 C 0,0 C 67 % 65 % 1013,9 hPa 0,0 l/m 0,0 km/h (0 Bft) S 180 0 min 1,8 C 7,2 C 0,0 km/h (0 Bft)
25.04.2023 20:15 7,4 C 12,2 C 5,8 C 7,3 C 7,1 C 0,0 C 67 % 65 % 1013,9 hPa 0,0 l/m 0,0 km/h (0 Bft) W-SW 247 0 min 1,7 C 7,1 C 1,6 km/h (1 Bft)
25.04.2023 20:20 7,4 C 12,2 C 5,6 C 7,3 C 7,0 C 0,0 C 67 % 65 % 1013,9 hPa 0,0 l/m 0,0 km/h (0 Bft) SW 225 0 min 1,7 C 7,0 C 0,0 km/h (0 Bft)
25.04.2023 20:25 7,3 C 12,2 C 5,6 C 7,2 C 7,0 C 0,0 C 67 % 65 % 1014,3 hPa 0,0 l/m 0,2 km/h (0 Bft) W-SW 247 0 min 1,6 C 7,0 C 0,0 km/h (0 Bft)
25.04.2023 20:30 7,2 C 12,2 C 5,5 C 7,1 C 6,8 C 0,0 C 67 % 63 % 1014,3 hPa 0,0 l/m 0,0 km/h (0 Bft) W-SW 247 0 min 1,5 C 6,8 C 0,0 km/h (0 Bft)
25.04.2023 20:35 7,2 C 12,2 C 5,5 C 7,1 C 6,8 C 0,0 C 67 % 64 % 1014,3 hPa 0,0 l/m 0,0 km/h (0 Bft) SW 225 0 min 1,5 C 6,8 C 0,0 km/h (0 Bft)
25.04.2023 20:40 7,1 C 12,2 C 5,3 C 6,9 C 6,6 C 0,0 C 67 % 65 % 1014,3 hPa 0,0 l/m 0,0 km/h (0 Bft) W-SW 247 0 min 1,4 C 6,6 C 0,0 km/h (0 Bft)
25.04.2023 20:50 6,9 C 12,2 C 4,9 C 6,6 C 6,1 C 0,0 C 67 % 65 % 1014,3 hPa 0,0 l/m 0,0 km/h (0 Bft) N-NW 337 0 min 1,2 C 6,1 C 0,0 km/h (0 Bft)
25.04.2023 20:55 6,9 C 12,2 C 4,7 C 6,5 C 5,8 C 0,0 C 68 % 66 % 1014,3 hPa 0,0 l/m 0,0 km/h (0 Bft) N 360 0 min 1,4 C 5,8 C 0,0 km/h (0 Bft)
25.04.2023 21:00 6,6 C 12,3 C 4,5 C 6,2 C 5,4 C 0,0 C 67 % 66 % 1014,3 hPa 0,0 l/m 0,0 km/h (0 Bft) S-SW 202 0 min 0,9 C 5,4 C 0,0 km/h (0 Bft)
25.04.2023 21:05 6,5 C 12,3 C 4,4 C 6,1 C 5,3 C 0,0 C 68 % 66 % 1014,8 hPa 0,0 l/m 0,0 km/h (0 Bft) W-SW 247 0 min 1,0 C 5,3 C 0,0 km/h (0 Bft)
25.04.2023 21:10 6,4 C 12,3 C 3,9 C 5,9 C 5,0 C 0,0 C 68 % 66 % 1014,8 hPa 0,0 l/m 0,0 km/h (0 Bft) W-SW 247 0 min 0,9 C 5,0 C 0,0 km/h (0 Bft)
25.04.2023 21:15 6,3 C 12,3 C 3,7 C 5,7 C 4,6 C 0,0 C 69 % 66 % 1014,8 hPa 0,0 l/m 0,0 km/h (0 Bft) W-SW 247 0 min 1,0 C 4,6 C 0,0 km/h (0 Bft)
25.04.2023 21:20 6,0 C 12,3 C 3,5 C 5,3 C 4,0 C 0,0 C 69 % 67 % 1014,8 hPa 0,0 l/m 0,0 km/h (0 Bft) W-SW 247 0 min 0,8 C 4,0 C 0,0 km/h (0 Bft)
25.04.2023 21:25 5,9 C 12,3 C 3,6 C 5,1 C 3,6 C 0,0 C 69 % 68 % 1015,1 hPa 0,0 l/m 0,0 km/h (0 Bft) W-SW 247 0 min 0,7 C 3,6 C 0,0 km/h (0 Bft)
25.04.2023 21:30 5,6 C 12,3 C 3,7 C 4,9 C 3,5 C 0,0 C 70 % 69 % 1015,1 hPa 0,0 l/m 0,0 km/h (0 Bft) W-SW 247 0 min 0,6 C 3,5 C 0,0 km/h (0 Bft)
25.04.2023 21:35 5,5 C 12,3 C 3,5 C 4,8 C 3,5 C 0,0 C 71 % 69 % 1015,1 hPa 0,0 l/m 0,0 km/h (0 Bft) W-SW 247 0 min 0,7 C 3,5 C 0,0 km/h (0 Bft)
25.04.2023 21:40 5,3 C 12,3 C 3,3 C 4,6 C 3,3 C 0,0 C 71 % 69 % 1015,1 hPa 0,0 l/m 0,0 km/h (0 Bft) W-SW 247 0 min 0,5 C 3,3 C 0,0 km/h (0 Bft)
25.04.2023 21:45 5,3 C 12,3 C 3,3 C 4,6 C 3,1 C 0,0 C 71 % 69 % 1015,0 hPa 0,0 l/m 0,0 km/h (0 Bft) W-SW 247 0 min 0,5 C 3,1 C 0,0 km/h (0 Bft)
25.04.2023 21:50 5,0 C 12,3 C 3,0 C 4,3 C 2,8 C 0,0 C 72 % 70 % 1015,0 hPa 0,0 l/m 0,0 km/h (0 Bft) W-SW 247 0 min 0,4 C 2,8 C 0,0 km/h (0 Bft)
25.04.2023 21:55 4,9 C 12,3 C 2,8 C 4,1 C 2,5 C 0,0 C 72 % 70 % 1015,0 hPa 0,0 l/m 0,0 km/h (0 Bft) W-SW 247 0 min 0,3 C 2,5 C 0,0 km/h (0 Bft)
25.04.2023 22:00 4,7 C 12,3 C 2,9 C 3,9 C 2,3 C 0,0 C 73 % 70 % 1015,0 hPa 0,0 l/m 0,0 km/h (0 Bft) W-SW 247 0 min 0,3 C 2,3 C 0,0 km/h (0 Bft)
25.04.2023 22:05 4,7 C 12,3 C 3,1 C 3,9 C 2,4 C 0,0 C 73 % 71 % 1015,1 hPa 0,0 l/m 0,0 km/h (0 Bft) W-SW 247 0 min 0,3 C 2,4 C 0,0 km/h (0 Bft)
25.04.2023 22:10 4,5 C 12,3 C 3,3 C 3,9 C 2,7 C 0,0 C 74 % 71 % 1015,1 hPa 0,0 l/m 0,0 km/h (0 Bft) W-SW 247 0 min 0,3 C 2,7 C 0,0 km/h (0 Bft)
25.04.2023 22:15 4,4 C 12,3 C 3,4 C 3,9 C 2,9 C 0,0 C 74 % 71 % 1015,1 hPa 0,0 l/m 0,0 km/h (0 Bft) W-SW 247 0 min 0,2 C 2,9 C 0,0 km/h (0 Bft)
25.04.2023 22:20 4,4 C 12,4 C 3,3 C 4,0 C 3,1 C 0,0 C 76 % 71 % 1015,1 hPa 0,0 l/m 0,0 km/h (0 Bft) NO 45 0 min 0,5 C 3,1 C 0,0 km/h (0 Bft)
25.04.2023 22:25 4,4 C 12,4 C 3,2 C 4,0 C 3,1 C 0,0 C 76 % 72 % 1015,4 hPa 0,0 l/m 0,0 km/h (0 Bft) NO 45 0 min 0,5 C 3,1 C 0,0 km/h (0 Bft)
25.04.2023 22:30 4,3 C 12,3 C 2,9 C 3,8 C 2,9 C 0,0 C 76 % 72 % 1015,4 hPa 0,0 l/m 0,0 km/h (0 Bft) NO 45 0 min 0,5 C 2,9 C 0,0 km/h (0 Bft)
25.04.2023 22:35 4,2 C 12,3 C 2,8 C 3,7 C 2,6 C 0,0 C 77 % 72 % 1015,4 hPa 0,0 l/m 0,0 km/h (0 Bft) W-NW 292 0 min 0,5 C 2,6 C 0,0 km/h (0 Bft)
25.04.2023 22:40 4,0 C 12,3 C 3,0 C 3,5 C 2,6 C 0,0 C 77 % 72 % 1015,4 hPa 0,0 l/m 0,0 km/h (0 Bft) W-SW 247 0 min 0,3 C 2,6 C 0,0 km/h (0 Bft)
25.04.2023 22:45 4,0 C 12,2 C 3,0 C 3,6 C 2,7 C 0,0 C 78 % 72 % 1015,2 hPa 0,0 l/m 0,0 km/h (0 Bft) SW 225 0 min 0,5 C 2,7 C 0,0 km/h (0 Bft)
25.04.2023 22:50 4,0 C 12,2 C 3,3 C 3,7 C 3,0 C 0,0 C 78 % 72 % 1015,2 hPa 0,0 l/m 0,0 km/h (0 Bft) W 270 0 min 0,5 C 3,0 C 0,0 km/h (0 Bft)
25.04.2023 22:55 4,0 C 12,2 C 3,5 C 3,7 C 3,2 C 0,0 C 79 % 73 % 1015,2 hPa 0,0 l/m 0,0 km/h (0 Bft) W-SW 247 0 min 0,7 C 3,2 C 0,0 km/h (0 Bft)
25.04.2023 23:00 4,1 C 12,1 C 3,7 C 3,9 C 3,6 C 0,0 C 79 % 73 % 1015,2 hPa 0,0 l/m 0,0 km/h (0 Bft) S-SO 157 0 min 0,8 C 3,6 C 0,0 km/h (0 Bft)
25.04.2023 23:05 4,3 C 12,1 C 3,9 C 4,1 C 3,6 C 0,0 C 80 % 72 % 1015,6 hPa 0,0 l/m 0,0 km/h (0 Bft) N-NO 22 0 min 1,2 C 3,6 C 0,0 km/h (0 Bft)
25.04.2023 23:10 4,5 C 12,1 C 4,1 C 4,3 C 3,9 C 0,0 C 80 % 72 % 1015,6 hPa 0,0 l/m 0,0 km/h (0 Bft) W-SW 247 0 min 1,4 C 3,9 C 0,0 km/h (0 Bft)
25.04.2023 23:15 4,5 C 12,1 C 4,2 C 4,4 C 4,2 C 0,0 C 80 % 72 % 1015,6 hPa 0,0 l/m 0,2 km/h (0 Bft) NW 315 0 min 1,4 C 4,2 C 2,6 km/h (1 Bft)
25.04.2023 23:20 4,7 C 12,1 C 4,2 C 4,5 C 4,2 C 0,0 C 80 % 72 % 1015,6 hPa 0,0 l/m 0,2 km/h (0 Bft) S-SW 202 0 min 1,6 C 4,2 C 0,0 km/h (0 Bft)
25.04.2023 23:25 4,8 C 12,1 C 4,3 C 4,6 C 4,3 C 0,0 C 80 % 72 % 1015,6 hPa 0,0 l/m 0,2 km/h (0 Bft) SW 225 0 min 1,6 C 4,3 C 0,0 km/h (0 Bft)
25.04.2023 23:30 4,8 C 12,1 C 4,2 C 4,6 C 4,3 C 0,0 C 80 % 72 % 1015,6 hPa 0,0 l/m 0,0 km/h (0 Bft) W-SW 247 0 min 1,6 C 4,3 C 0,0 km/h (0 Bft)
25.04.2023 23:35 4,8 C 12,1 C 4,2 C 4,6 C 4,2 C 0,0 C 80 % 72 % 1015,6 hPa 0,0 l/m 0,0 km/h (0 Bft) NO 45 0 min 1,6 C 4,2 C 0,0 km/h (0 Bft)
25.04.2023 23:40 4,8 C 12,1 C 4,1 C 4,6 C 4,2 C 0,0 C 80 % 72 % 1015,6 hPa 0,0 l/m 0,0 km/h (0 Bft) W 270 0 min 1,6 C 4,2 C 0,0 km/h (0 Bft)
25.04.2023 23:45 4,8 C 12,1 C 4,0 C 4,6 C 4,3 C 0,0 C 80 % 72 % 1015,6 hPa 0,0 l/m 0,0 km/h (0 Bft) W-SW 247 0 min 1,6 C 4,3 C 0,0 km/h (0 Bft)
25.04.2023 23:50 4,8 C 12,0 C 3,7 C 4,6 C 4,3 C 0,0 C 79 % 72 % 1015,6 hPa 0,0 l/m 0,0 km/h (0 Bft) W-SW 247 0 min 1,5 C 4,3 C 0,0 km/h (0 Bft)
25.04.2023 23:55 4,8 C 12,0 C 3,5 C 4,6 C 4,1 C 0,0 C 79 % 72 % 1015,6 hPa 0,0 l/m 0,0 km/h (0 Bft) W 270 0 min 1,5 C 4,1 C 0,0 km/h (0 Bft)
_ Min-Zeit 22:40 23:50 21:55 22:40 22:00 00:02 19:17 12:45 05:05 - 00:30 - - - 22:15 22:00 00:02
Minimum _ 4,0 C 12,0 C 2,8 C 3,5 C 2,3 C 0,0 C 66 % 49 % 1008,9 hPa - 0,0 km/h (0 Bft) - - - 0,2 C 2,3 C 0,0 km/h (0 Bft)
_ Max-Zeit 15:37 00:02 15:37 07:30 07:30 07:30 07:25 17:21 23:05 16:30 09:30 - - 07:05 00:40 07:30 09:30
Maximum _ 9,4 C 13,9 C 11,6 C 15,5 C 15,5 C 8,8 C 85 % 79 % 1015,6 hPa 1,4 l/m 4,3 km/h
S-SO (1 Bft)
- - 5 min 4,8 C 15,5 C 13,0 km/h
S-SO (3 Bft)
Durchschnitt _ 7,1 C 12,7 C 6,8 C 8,0 C 7,7 C 1,0 C 75 % 63 % 1011,4 hPa #1,4 l/m 0,4 km/h (0 Bft) SW - #1:00 h 3,0 C 7,7 C 0,8 km/h (0 Bft)
2023 www.wetterstation-wechselburg.de